Weather observations for the past three days for
Rapid City, Rapid City Regional Airport
Metric (Imperial)
Date Time (mdt) Wind (kph) Vis. (km) Weather Sky Cond. Temperature (ºC) Relative Humidity Wind Chill (°C) Heat Index (°C) Pressure Precipitation (cm)
Air Dwpt 6 hour altimeter (cm) sea level (mb) 1 hr 3 hr 6 hr
Max. Min.
08 04:52 W 11 16.09 Overcast OVC100 7.2 2.2 71% 5 75.87 1011.0
08 03:52 W 11 16.09 Fair CLR 5 1.1 76% 3 75.84 1011.2
08 02:52 NW 13 16.09 Fair CLR 6.1 2.2 76% 4 75.84 1010.8
08 01:52 NW 15 16.09 Fair CLR 5.6 2.2 79% 3 75.84 1010.9
08 00:52 W 11 16.09 Fair CLR 7.8 3.3 73% 6 75.84 1010.9
07 23:52 W 13 16.09 Fair CLR 7.8 2.8 15 6.7 71% 6 75.82 1010.8
07 22:52 NW 13 16.09 Fair CLR 7.8 3.3 73% 6 75.82 1010.7
07 21:52 W 9 16.09 Partly Cloudy SCT100 9.4 3.9 69% 8 75.84 1010.6
07 20:52 W 9 16.09 Overcast OVC095 12.8 3.9 55% 75.82 1010.3
07 19:52 SW 6 16.09 Fair CLR 13.3 5 57% 75.77 1009.6
07 18:52 SW 15 16.09 Fair CLR 14.4 5 53% 75.72 1009.5
07 17:52 W 20 16.09 Mostly Cloudy BKN110 15 4.4 18.3 14.4 49% 75.74 1010.4
07 16:52 SE 9 16.09 Mostly Cloudy BKN100 16.7 -3.3 25% 75.72 1009.8
07 15:52 E 15 16.09 Fair CLR 17.2 -3.9 24% 75.74 1010.2
07 14:52 SE 9 16.09 Fair CLR 17.2 -5.6 21% 75.74 1010.4
07 13:52 NE 9 16.09 Mostly Cloudy BKN090 17.8 -5.6 20% 75.79 1010.8
07 12:52 NE 13 16.09 Partly Cloudy SCT090 15.6 -7.2 20% 75.82 1011.1
07 11:52 N 13 16.09 Overcast FEW080 SCT100 OVC120 13.9 -7.8 15.6 0.6 22% 75.84 1012.1
07 10:52 NE 17 16.09 Overcast OVC095 13.9 -7.2 23% 75.84 1011.6
07 09:52 N 19 16.09 Fair CLR 14.4 -7.8 21% 75.84 1011.6
07 08:52 N 13 16.09 Fair CLR 12.8 -7.2 24% 75.87 1011.7
07 07:52 N 17 16.09 Fair CLR 11.1 -6.7 28% 75.84 1011.4
07 06:52 SW 9 16.09 Fair CLR 6.7 -6.1 40% 5 75.79 1011.0
07 05:52 NW 9 16.09 Fair CLR 0.6 -7.2 4.4 -2.8 56% -2 75.77 1011.2
07 04:52 NW 11 16.09 Fair CLR 0.6 -8.3 52% -2 75.72 1010.5
07 03:52 NW 15 16.09 Fair CLR -1.1 -7.8 61% -5 75.72 1010.5
07 02:52 N 9 16.09 Fair CLR -2.2 -7.8 66% -5 75.69 1010.4
07 01:52 Calm 16.09 Fair CLR 0.6 -8.3 52% 75.72 1010.7
07 00:52 S 7 16.09 Fair CLR 4.4 -8.3 40% 3 75.74 1010.8
06 23:52 Calm 16.09 Fair CLR 0.6 -7.8 12.2 -1.1 54% 75.79 1011.9
06 22:52 S 9 16.09 Fair CLR 5 -7.8 39% 3 75.82 1011.7
06 21:52 Calm 16.09 A Few Clouds FEW120 2.8 -7.8 46% 75.87 1012.8
06 20:52 Calm 16.09 Fair CLR 7.2 -8.3 33% 75.9 1012.9
06 19:52 E 7 16.09 Fair CLR 7.8 -7.2 34% 7 75.92 1013.2
06 18:52 E 9 16.09 Fair CLR 11.1 -8.3 25% 75.9 1013.1
06 17:52 Calm 16.09 Fair CLR 11.7 -8.9 12.8 8.9 23% 75.97 1014.6
06 16:52 Vrbl 9 16.09 Fair CLR 12.2 -9.4 21% 76 1015.0
06 15:52 S 11 16.09 Fair CLR 12.8 -8.9 21% 76.07 1015.9
06 14:52 W 11 16.09 A Few Clouds FEW080 11.7 -9.4 22% 76.15 1016.9
06 13:52 Vrbl 7 16.09 Fair CLR 11.7 -8.9 23% 76.23 1018.0
06 12:52 W 7 16.09 Fair CLR 10 -9.4 25% 9 76.25 1018.6
06 11:52 NW 9 16.09 Fair CLR 9.4 -10 9.4 -4.4 25% 8 76.33 1019.5
06 10:52 NW 19 G 30 16.09 Fair CLR 8.3 -9.4 28% 6 76.4 1020.1
06 09:52 NW 17 G 33 16.09 Fair CLR 7.2 -10 29% 5 76.43 1020.8
06 08:52 N 22 G 35 16.09 Fair CLR 6.1 -10 31% 3 76.43 1020.8
06 07:52 NW 19 16.09 Fair CLR 4.4 -8.9 38% 1 76.45 1021.2
06 06:52 W 13 16.09 Fair CLR 1.1 -7.2 54% -2 76.45 1021.2
06 05:52 NW 13 16.09 Fair CLR -4.4 -8.9 -0.6 -5 71% -9 76.4 1021.4
06 04:52 NW 13 16.09 Fair CLR -4.4 -8.9 71% -9 76.38 1020.8
06 03:52 W 9 16.09 Fair CLR -4.4 -9.4 68% -8 76.38 1020.8
06 02:52 NW 11 16.09 Fair CLR -3.3 -8.9 66% -7 76.38 1020.4
06 01:52 NW 11 16.09 Fair CLR -3.9 -8.9 69% -8 76.38 1020.2
06 00:52 NW 15 16.09 Fair CLR -2.2 -7.8 66% -7 76.35 1020.0
05 23:52 N 17 16.09 Fair CLR -0.6 -7.8 7.8 -0.6 59% -5 76.35 1019.8
05 22:52 N 20 16.09 Fair CLR 1.1 -7.8 52% -3 76.33 1019.2
05 21:52 N 17 16.09 Fair CLR 0 -7.8 56% -4 76.33 1019.6
05 20:52 N 17 16.09 Partly Cloudy SCT060 2.8 -7.8 46% -1 76.28 1018.7
05 19:52 N 20 16.09 Fair CLR 4.4 -8.3 40% 1 76.17 1017.4
05 18:52 NW 30 G 43 16.09 A Few Clouds FEW095 6.7 -5.6 41% 3 76.12 1016.7
05 17:52 N 37 G 54 16.09 Overcast and Breezy OVC100 6.7 -6.1 10.6 6.7 40% 2 76.1 1016.6
05 16:52 N 48 G 59 16.09 Mostly Cloudy and Windy FEW055 BKN090 8.3 -5 39% 4 76.07 1015.9
05 15:52 N 33 G 61 16.09 Mostly Cloudy and Breezy BKN090 7.8 -6.7 35% 4 76.02 1015.0
05 14:52 N 50 G 63 16.09 Fair and Windy CLR 10 -6.7 30% 6 76 1014.6
05 13:52 N 37 G 61 16.09 Fair and Breezy CLR 10.6 -6.7 29% 76.05 1015.0
05 12:52 N 35 G 57 16.09 A Few Clouds and Breezy FEW055 10 -6.7 30% 7 76.07 1015.0
05 11:52 NW 33 G 56 16.09 Overcast and Breezy OVC065 8.3 -7.2 9.4 -1.7 33% 4 76.12 1015.9
05 10:52 N 31 G 46 16.09 Mostly Cloudy BKN060 7.2 -8.3 33% 3 76.15 1016.1
05 09:52 N 37 G 48 16.09 A Few Clouds and Breezy FEW050 6.7 -7.8 35% 2 76.15 1016.3
05 08:52 N 33 G 48 16.09 Partly Cloudy and Breezy FEW036 SCT048 5.6 -5 47% 1 76.17 1016.6
05 07:52 N 31 16.09 Fair CLR 3.9 -2.8 62% -1 76.17 1016.6
05 06:52 N 15 16.09 Partly Cloudy SCT048 2.2 -2.2 73% -1 76.12 1016.0
05 05:52 N 13 16.09 Fair CLR -1.7 -3.9 5.6 -2.2 85% -6 76.05 1015.5
Date Time (mdt) Wind (kph) Vis. (km) Weather Sky Cond. Air Dwpt Max. Min. Relative Humidity Wind Chill (°C) Heat Index (°C) altimeter (cm) sea level (mb) 1 hr 3 hr 6 hr
6 hour
Temperature (ºC) Pressure Precipitation (cm)